#timestamp,LO_Frequency,Hit,StdDev 
1625886015.8,286047000.1,N
1625886035.6,286047002.1,N
1625886055.4,286046999.7,N
1625886075.3,286047002.5,N
1625886095.1,286047000.1,N
1625886115.9,286047002.0,N
1625886135.7,286047002.4,N
1625886155.5,286047002.1,N
1625886175.4,286047002.1,N
1625886195.2,286047002.5,N
1625886215.0,286047000.0,N
1625886216.0,286047000.0,N
1625886235.8,286046999.9,N
1625886255.6,286047002.8,N
1625886275.5,286047002.4,N
1625886295.3,286047002.3,N
1625886315.1,286047002.4,N
1625886335.9,286047002.5,N
1625886355.7,286047001.9,N
1625886375.6,286047002.8,N
1625886395.4,286047000.2,N
1625886415.2,286047002.7,N
1625886435.1,286047002.6,N
1625886436.0,286047002.6,N
1625886455.8,286047001.9,N
1625886475.6,286047002.0,N
1625886495.5,286047002.1,N
1625886515.3,286047002.2,N
1625886535.2,286047002.6,N
1625886555.9,286047002.3,N
1625886575.7,286047002.6,N
1625886595.6,286047002.3,N
1625886615.4,286047002.6,N
1625886635.3,286047002.8,Y
1625886655.1,286046998.3,P
1625886656.0,286046998.3,N
1625886675.8,286046999.1,N
1625886695.7,286046998.7,N
1625886715.5,286046998.4,N
1625886735.3,286046998.8,N
1625886755.2,286046998.4,N
1625886775.0,286046998.4,N
1625886775.9,286046998.4,N
1625886795.8,286046999.6,N
1625886815.6,286046997.0,N
1625886835.4,286046998.9,N
1625886855.3,286046997.3,N
1625886875.1,286046995.2,Y
1625886895.8,286046996.7,P
1625886915.7,286046996.9,P
1625886935.5,286046999.5,N
1625886955.4,286046996.6,N
1625886975.2,286046996.6,N
1625886995.0,286046995.4,Y
1625886995.9,286046995.4,P
1625887015.8,286047000.7,N
1625887035.6,286046999.7,N
1625887055.5,286046999.8,N
1625887075.3,286047000.1,N
1625887095.1,286047000.6,N
1625887115.9,286047000.0,N
1625887135.7,286047000.0,N
1625887155.5,286047000.6,N
1625887175.4,286047000.3,N
1625887195.2,286047000.5,N
1625887215.1,286047000.2,N
1625887216.0,286047000.2,N
1625887235.8,286047001.1,N
1625887255.6,286047000.9,N
1625887275.5,286046998.3,N
1625887295.3,286046998.9,N
1625887315.1,286046999.4,N
1625887335.9,286046998.6,N
1625887355.7,286046998.7,N
1625887375.6,286046998.9,N
1625887395.4,286047000.4,N
1625887415.2,286047000.6,N
1625887435.1,286047002.5,N
1625887436.0,286047002.5,N
1625887455.8,286047001.9,N
1625887475.7,286047003.7,N
1625887495.5,286047003.7,N
1625887515.3,286047002.9,N
1625887535.2,286047005.3,Y
1625887555.0,286047006.0,P
1625887555.9,286047006.0,N
1625887575.7,286047003.8,N
1625887595.6,286047003.8,N
1625887615.4,286047001.6,N
1625887635.3,286047001.6,N
1625887655.1,286047001.3,N
1625887656.0,286047001.3,N
1625887675.8,286047002.3,N
1625887695.7,286047001.7,N
1625887715.5,286047001.9,N
1625887735.3,286047001.9,N
1625887755.2,286047003.8,N
1625887775.0,286047003.3,N
1625887775.9,286047003.3,N
1625887795.8,286047003.4,N
1625887815.6,286047005.7,Y
1625887835.4,286046999.8,P
1625887855.3,286047000.6,N
1625887875.1,286047000.9,N
1625887895.8,286047000.2,N
1625887915.7,286047001.0,N
1625887935.5,286047000.4,N
1625887955.4,286047000.0,N
1625887975.2,286047000.3,N
1625887995.0,286047000.5,N
1625887995.9,286047000.5,N
1625888015.8,286047000.8,N
1625888035.6,286047000.2,N
1625888055.4,286047001.1,N
1625888075.3,286047001.1,N
1625888095.1,286046998.5,N
1625888115.9,286047000.7,N
1625888135.7,286047000.1,N
1625888155.5,286047001.0,N
1625888175.4,286047000.5,N
1625888195.2,286047000.1,N
1625888215.0,286047000.9,N
1625888215.9,286047000.9,N
1625888235.8,286046998.1,N
1625888255.6,286046998.3,N
1625888275.5,286047002.7,N
1625888295.3,286047000.7,N
1625888315.1,286047000.9,N
1625888335.9,286046999.9,N
1625888355.7,286047002.6,N
1625888375.5,286047002.1,N
1625888395.4,286047002.2,N
1625888415.2,286047001.6,N
1625888435.1,286047002.5,N
1625888436.0,286047002.5,N
1625888455.8,286047002.6,N
1625888475.6,286047001.9,N
1625888495.5,286047002.7,N
1625888515.3,286047000.3,N
1625888535.2,286046998.4,N
1625888555.9,286047000.5,N
1625888575.7,286047000.3,N
1625888595.6,286047000.4,N
1625888615.4,286047001.0,N
1625888635.2,286046998.2,N
1625888655.1,286047000.9,N
1625888656.0,286047000.9,N
1625888675.8,286047000.7,N
1625888695.7,286047000.4,N
1625888715.5,286047002.6,N
1625888735.3,286047000.1,N
1625888755.2,286046999.7,N
1625888775.0,286047000.1,N
1625888775.9,286047000.1,N
1625888795.7,286047000.4,N
1625888815.6,286047000.8,N
1625888835.4,286047000.6,N
1625888855.3,286046999.9,N
1625888875.1,286047000.1,N
1625888876.0,286047000.1,N
1625888895.8,286047002.1,N
1625888915.7,286047002.5,N
1625888935.5,286046999.7,N
1625888955.3,286047002.3,N
1625888975.2,286047000.1,N
1625888995.0,286047000.8,N
1625888995.9,286047000.8,N
1625889015.8,286047001.2,N
1625889035.6,286046998.2,N
1625889055.4,286047000.8,N
1625889075.3,286047000.9,N
1625889095.1,286047000.0,N
1625889115.8,286047000.0,N
1625889135.7,286047000.3,N
1625889155.5,286047000.4,N
1625889175.4,286046999.9,N
1625889195.2,286046999.9,N
1625889215.0,286047001.0,N
1625889215.9,286047001.0,N
1625889235.8,286047000.6,N
1625889255.6,286047000.6,N
1625889275.4,286046999.7,N
1625889295.3,286047002.5,N
1625889315.1,286047000.4,N
1625889335.9,286047002.1,N
1625889355.7,286047000.6,N
1625889375.5,286047000.3,N
1625889395.4,286047000.6,N
1625889415.2,286047000.5,N
1625889435.0,286047001.1,N
1625889436.0,286047001.1,N
1625889455.8,286047000.8,N
1625889475.6,286046998.1,N
1625889495.5,286046998.2,N
1625889515.3,286046999.1,N
1625889535.1,286046998.1,N
1625889555.9,286046998.1,N
1625889575.7,286047000.8,N
1625889595.5,286047000.4,N
